This is the latest recevied weather packets stored in our database for station/object IW3HBX-3. If no packets are shown the sender has not sent any weather packets the latest 10 day(s).
| Time | Temp. | Humidity | Pressure | Rain* | Wind** | Luminosity | Snow |
|---|---|---|---|---|---|---|---|
| 1777553139 | 17.78° C | 39% | 1024.9 hPa | 0 mm | - | 748 W/m² | - |
| 1777552840 | 17.22° C | 39% | 1024.9 hPa | 0 mm | - | 756 W/m² | - |
| 1777552540 | 17.22° C | 39% | 1024.9 hPa | 0 mm | - | 761 W/m² | - |
| 1777552240 | 17.22° C | 39% | 1025 hPa | 0 mm | - | 767 W/m² | - |
| 1777551940 | 17.22° C | 38% | 1025.1 hPa | 0 mm | - | 772 W/m² | - |
| 1777551640 | 17.78° C | 39% | 1025.1 hPa | 0 mm | - | 775 W/m² | - |
| 1777551340 | 17.22° C | 40% | 1025.2 hPa | 0 mm | - | 779 W/m² | - |
| 1777551040 | 17.22° C | 40% | 1025 hPa | 0 mm | - | 783 W/m² | - |
| 1777550740 | 17.22° C | 39% | 1025.1 hPa | 0 mm | - | 788 W/m² | - |
| 1777550440 | 17.22° C | 40% | 1025.2 hPa | 0 mm | - | 785 W/m² | - |
| 1777550140 | 17.78° C | 40% | 1025.2 hPa | 0 mm | - | 791 W/m² | - |
| 1777549840 | 17.78° C | 39% | 1025.3 hPa | 0 mm | - | 801 W/m² | - |
| 1777549541 | 17.22° C | 40% | 1025.3 hPa | 0 mm | - | 804 W/m² | - |
| 1777549241 | 17.22° C | 40% | 1025.4 hPa | 0 mm | - | 802 W/m² | - |
| 1777548941 | 16.67° C | 39% | 1025.3 hPa | 0 mm | - | 807 W/m² | - |
| 1777548641 | 16.11° C | 40% | 1025.6 hPa | 0 mm | - | 806 W/m² | - |
| 1777548341 | 16.67° C | 40% | 1025.5 hPa | 0 mm | - | 807 W/m² | - |
| 1777548041 | 16.67° C | 40% | 1025.5 hPa | 0 mm | - | 811 W/m² | - |
| 1777547741 | 16.11° C | 42% | 1025.6 hPa | 0 mm | - | 805 W/m² | - |
| 1777547441 | 17.22° C | 41% | 1025.6 hPa | 0 mm | - | 812 W/m² | - |
| 1777547141 | 16.11° C | 40% | 1025.6 hPa | 0 mm | - | 810 W/m² | - |
| 1777546841 | 15.56° C | 41% | 1025.6 hPa | 0 mm | - | 815 W/m² | - |
| 1777546541 | 16.11° C | 42% | 1025.8 hPa | 0 mm | - | 806 W/m² | - |
| 1777546241 | 16.11° C | 41% | 1025.8 hPa | 0 mm | - | 805 W/m² | - |
| 1777545941 | 16.11° C | 40% | 1025.6 hPa | 0 mm | - | 805 W/m² | - |
* Rain latest hour (hover to see other rain measurements)
** Current wind speed in m/s (hover to see current wind gust speed)